Find Starlink 4746

NORAD ID: 53846 Int'l Des: 2022-114 Owner: SPXS Country: US Constellation: starlink operational
LEOCIRCULAR

Aktuelle Ansicht

3D-Globus wird geladen...

Über Starlink 4746

Beschreibung wird geladen...

Nächste Überflüge

Passes for default location (London). Set your location on the main map for personalized predictions.

Höhenverlauf

Loading altitude history...

Zweizeiliger Elementsatz

1 53846U 22114AE 26149.36609451 -.00000132 00000-0 98043-5 0 9998
2 53846 53.1998 291.7560 0001239 104.5896 255.5234 15.08832405205156
Epoch: 29. Mai 2026 • Age: 16 hours

Aktueller Status

Höhe 545.4 km
Geschwindigkeit 7.60 km/s
Subsatellitenpunkt 52.80°N, 125.84°E
Startdatum 19. Sept. 2022
Alter 3.6 years
Typ internet

Technische Details

Klassifizierung Payload
Masse 305.00 kg
Trockenmasse 290.00 kg
Gesamtmasse 305.00 kg
Länge 0.20 m
Durchmesser 2.80 m
Spannweite 9.00 m
Form Box + pan
Hersteller SPXS
Bus-Typ Starlink
Phasenstatus In Orbit
Besitzer/Staat SPXS/US

Most Searched